User: anonymous   Login
Location: Unspecified
(0.0000°N, 0.0000°E)
Time: 06:39:26
(UTC+00:00)
Language:

STRAND 1 - Orbit

View from above orbital plane
View from above orbital plane
View from above satellite
View from above satellite

Ground track
Ground track

The orbit data is extracted from the following two-line orbital elements,

1 39090U 13009E   19082.14487041  .00000025  00000-0  24016-4 0  9997
2 39090  98.4973 289.5251 0009031 181.9639 178.1512 14.35074906317831
Epoch (UTC): 23 March 2019 03:28:36
Eccentricity: 0.0009031
inclination: 98.4973°
perigee height: 768 km
apogee height: 781 km
right ascension of ascending node: 289.5251°
argument of perigee: 181.9639°
revolutions per day: 14.35074906
mean anomaly at epoch: 178.1512°
orbit number at epoch: 31783

The dashed part of the orbit path shows where the satellite is in the earth's shadow,  

DLR